Torna al catalogo

ARIANE 1 DEB

LostHEO
NORAD 26924·DEBRIS·🇫🇷 France

Lanciato Mar 5, 1984 da Guiana Space Centre

Loading…

Prossimi Passaggi (prossime 24 ore)

TLE

ObsoletoSource: Space-Track

Epoca: Oct 26, 2025, 03:00 UTC

1 26924U 84023J   25299.12546078 -.00000108  00000-0  00000-0 0  9990
2 26924   7.9597 216.0784 6728238 187.7254 355.6009  2.51945823 40731

Traccia ARIANE 1 DEB in tempo reale con AllMySat

Download on the App Store